Time,TemperatureF,DewpointF,PressureIn,WindDirection,WindDirectionDegrees,WindSpeedMPH,WindSpeedGustMPH,Humidity,HourlyPrecipIn,Conditions,Clouds,dailyrainin,SoftwareType,DateUTC
2013-02-09 00:00:00,16.3,13.6,30.32,East,89,0.0,1.0,89,0.00,,,0.00,Wunderground v.1.15,2013-02-09 05:00:00,
2013-02-09 00:06:00,16.0,13.3,30.32,East,89,0.0,1.0,89,0.00,,,0.00,Wunderground v.1.15,2013-02-09 05:06:00,
2013-02-09 00:12:00,15.7,13.0,30.32,East,88,0.0,2.0,89,0.00,,,0.00,Wunderground v.1.15,2013-02-09 05:12:00,
2013-02-09 00:18:00,15.3,12.6,30.32,East,89,0.0,2.0,89,0.00,,,0.00,Wunderground v.1.15,2013-02-09 05:18:00,
2013-02-09 00:23:00,15.2,12.5,30.32,East,88,0.0,1.0,89,0.00,,,0.00,Wunderground v.1.15,2013-02-09 05:23:00,
2013-02-09 00:29:00,15.0,12.6,30.32,East,88,0.0,1.0,90,0.00,,,0.00,Wunderground v.1.15,2013-02-09 05:29:00,
2013-02-09 00:34:00,14.9,12.5,30.32,East,89,0.0,0.0,90,0.00,,,0.00,Wunderground v.1.15,2013-02-09 05:34:00,
2013-02-09 00:40:00,14.8,12.4,30.33,East,88,0.0,0.0,90,0.00,,,0.00,Wunderground v.1.15,2013-02-09 05:40:00,
2013-02-09 00:46:00,14.8,12.4,30.33,East,88,0.0,0.0,90,0.00,,,0.00,Wunderground v.1.15,2013-02-09 05:46:00,
2013-02-09 00:51:00,14.6,12.2,30.33,East,88,2.0,2.0,90,0.00,,,0.00,Wunderground v.1.15,2013-02-09 05:51:00,
2013-02-09 00:57:00,14.4,12.0,30.33,East,88,0.0,2.0,90,0.00,,,0.00,Wunderground v.1.15,2013-02-09 05:57:00,
2013-02-09 01:02:00,14.1,11.7,30.33,East,89,0.0,0.0,90,0.00,,,0.00,Wunderground v.1.15,2013-02-09 06:02:00,
2013-02-09 01:08:00,13.8,11.4,30.33,East,88,0.0,0.0,90,0.00,,,0.00,Wunderground v.1.15,2013-02-09 06:08:00,
2013-02-09 01:14:00,13.7,11.3,30.34,East,89,0.0,0.0,90,0.00,,,0.00,Wunderground v.1.15,2013-02-09 06:14:00,
2013-02-09 01:19:00,13.6,11.2,30.34,East,88,0.0,0.0,90,0.00,,,0.00,Wunderground v.1.15,2013-02-09 06:19:00,
2013-02-09 01:25:00,13.6,11.5,30.35,East,89,0.0,0.0,91,0.00,,,0.00,Wunderground v.1.15,2013-02-09 06:25:00,
2013-02-09 01:30:00,13.5,11.4,30.35,East,89,0.0,0.0,91,0.00,,,0.00,Wunderground v.1.15,2013-02-09 06:30:00,
2013-02-09 01:36:00,13.4,11.3,30.35,East,89,0.0,1.0,91,0.00,,,0.00,Wunderground v.1.15,2013-02-09 06:36:00,
2013-02-09 01:41:00,13.4,11.3,30.34,East,88,0.0,0.0,91,0.00,,,0.00,Wunderground v.1.15,2013-02-09 06:41:00,
2013-02-09 01:47:00,13.3,11.2,30.34,East,89,0.0,0.0,91,0.00,,,0.00,Wunderground v.1.15,2013-02-09 06:47:00,
2013-02-09 01:52:00,13.2,11.1,30.34,East,89,0.0,0.0,91,0.00,,,0.00,Wunderground v.1.15,2013-02-09 06:52:00,
2013-02-09 01:58:00,13.2,11.1,30.34,East,89,0.0,0.0,91,0.00,,,0.00,Wunderground v.1.15,2013-02-09 06:58:00,
2013-02-09 02:03:00,13.3,11.2,30.34,East,89,0.0,0.0,91,0.00,,,0.00,Wunderground v.1.15,2013-02-09 07:03:00,
2013-02-09 02:08:00,13.4,11.5,30.34,East,88,0.0,0.0,92,0.00,,,0.00,Wunderground v.1.15,2013-02-09 07:08:00,
2013-02-09 02:13:00,13.5,11.6,30.33,East,88,0.0,1.0,92,0.00,,,0.00,Wunderground v.1.15,2013-02-09 07:13:00,
2013-02-09 02:18:00,13.5,11.6,30.33,East,89,0.0,1.0,92,0.00,,,0.00,Wunderground v.1.15,2013-02-09 07:18:00,
2013-02-09 02:23:00,13.5,11.6,30.33,East,89,0.0,0.0,92,0.00,,,0.00,Wunderground v.1.15,2013-02-09 07:23:00,
2013-02-09 02:28:00,13.5,11.6,30.33,East,89,0.0,0.0,92,0.00,,,0.00,Wunderground v.1.15,2013-02-09 07:28:00,
2013-02-09 02:33:00,13.4,11.5,30.33,East,89,0.0,0.0,92,0.00,,,0.00,Wunderground v.1.15,2013-02-09 07:33:00,
2013-02-09 02:38:00,13.2,11.1,30.33,East,89,0.0,0.0,91,0.00,,,0.00,Wunderground v.1.15,2013-02-09 07:38:00,
2013-02-09 02:43:00,13.1,11.0,30.33,East,88,0.0,0.0,91,0.00,,,0.00,Wunderground v.1.15,2013-02-09 07:43:00,
2013-02-09 02:48:00,12.9,10.8,30.33,East,89,0.0,0.0,91,0.00,,,0.00,Wunderground v.1.15,2013-02-09 07:48:00,
2013-02-09 02:53:00,12.7,10.6,30.33,East,88,0.0,0.0,91,0.00,,,0.00,Wunderground v.1.15,2013-02-09 07:53:00,
2013-02-09 02:58:00,12.6,10.5,30.34,East,88,0.0,0.0,91,0.00,,,0.00,Wunderground v.1.15,2013-02-09 07:58:00,
2013-02-09 03:03:00,12.6,10.5,30.34,East,88,0.0,0.0,91,0.00,,,0.00,Wunderground v.1.15,2013-02-09 08:03:00,
2013-02-09 03:08:00,12.6,10.5,30.34,East,88,0.0,0.0,91,0.00,,,0.00,Wunderground v.1.15,2013-02-09 08:08:00,
2013-02-09 03:13:00,12.5,10.4,30.35,East,88,0.0,0.0,91,0.00,,,0.00,Wunderground v.1.15,2013-02-09 08:13:00,
2013-02-09 03:18:00,12.5,10.4,30.35,East,89,0.0,0.0,91,0.00,,,0.00,Wunderground v.1.15,2013-02-09 08:18:00,
2013-02-09 03:23:00,12.3,10.2,30.35,East,89,0.0,0.0,91,0.00,,,0.00,Wunderground v.1.15,2013-02-09 08:23:00,
2013-02-09 03:28:00,12.1,10.0,30.35,East,88,0.0,0.0,91,0.00,,,0.00,Wunderground v.1.15,2013-02-09 08:28:00,
2013-02-09 03:33:00,12.2,10.1,30.35,East,89,0.0,0.0,91,0.00,,,0.00,Wunderground v.1.15,2013-02-09 08:33:00,
2013-02-09 03:38:00,12.1,10.0,30.35,East,89,0.0,0.0,91,0.00,,,0.00,Wunderground v.1.15,2013-02-09 08:38:00,
2013-02-09 03:43:00,12.1,10.0,30.35,East,89,0.0,0.0,91,0.00,,,0.00,Wunderground v.1.15,2013-02-09 08:43:00,
2013-02-09 03:48:00,12.0,9.9,30.35,East,88,0.0,1.0,91,0.00,,,0.00,Wunderground v.1.15,2013-02-09 08:48:00,
2013-02-09 03:53:00,11.9,9.8,30.35,East,89,0.0,0.0,91,0.00,,,0.00,Wunderground v.1.15,2013-02-09 08:53:00,
2013-02-09 03:58:00,11.8,9.7,30.35,East,89,0.0,0.0,91,0.00,,,0.00,Wunderground v.1.15,2013-02-09 08:58:00,
2013-02-09 04:03:00,11.7,9.6,30.35,East,88,0.0,0.0,91,0.00,,,0.00,Wunderground v.1.15,2013-02-09 09:03:00,
2013-02-09 04:08:00,11.7,9.6,30.35,East,88,0.0,0.0,91,0.00,,,0.00,Wunderground v.1.15,2013-02-09 09:08:00,
2013-02-09 04:13:00,11.5,9.4,30.35,East,88,0.0,0.0,91,0.00,,,0.00,Wunderground v.1.15,2013-02-09 09:13:00,
2013-02-09 04:18:00,11.4,9.3,30.35,East,88,0.0,0.0,91,0.00,,,0.00,Wunderground v.1.15,2013-02-09 09:18:00,
2013-02-09 04:23:00,11.2,9.1,30.35,East,89,0.0,0.0,91,0.00,,,0.00,Wunderground v.1.15,2013-02-09 09:23:00,
2013-02-09 04:28:00,11.2,9.1,30.35,East,88,0.0,0.0,91,0.00,,,0.00,Wunderground v.1.15,2013-02-09 09:28:00,
2013-02-09 04:33:00,11.0,8.9,30.35,East,88,0.0,0.0,91,0.00,,,0.00,Wunderground v.1.15,2013-02-09 09:33:00,
2013-02-09 04:38:00,11.0,8.9,30.35,East,88,0.0,0.0,91,0.00,,,0.00,Wunderground v.1.15,2013-02-09 09:38:00,
2013-02-09 04:43:00,11.0,8.9,30.36,East,89,0.0,0.0,91,0.00,,,0.00,Wunderground v.1.15,2013-02-09 09:43:00,
2013-02-09 04:48:00,11.1,9.0,30.36,East,89,0.0,0.0,91,0.00,,,0.00,Wunderground v.1.15,2013-02-09 09:48:00,
2013-02-09 04:53:00,11.1,9.2,30.36,East,88,0.0,0.0,92,0.00,,,0.00,Wunderground v.1.15,2013-02-09 09:53:00,
2013-02-09 04:58:00,11.1,9.2,30.36,East,88,0.0,0.0,92,0.00,,,0.00,Wunderground v.1.15,2013-02-09 09:58:00,
2013-02-09 05:03:00,11.5,9.6,30.36,East,89,0.0,0.0,92,0.00,,,0.00,Wunderground v.1.15,2013-02-09 10:03:00,
2013-02-09 05:08:00,11.8,9.9,30.36,East,89,0.0,0.0,92,0.00,,,0.00,Wunderground v.1.15,2013-02-09 10:08:00,
2013-02-09 05:13:00,12.1,10.2,30.35,East,89,1.0,2.0,92,0.00,,,0.00,Wunderground v.1.15,2013-02-09 10:13:00,
2013-02-09 05:18:00,12.1,10.2,30.35,East,89,0.0,2.0,92,0.00,,,0.00,Wunderground v.1.15,2013-02-09 10:18:00,
2013-02-09 05:23:00,12.0,10.1,30.35,ESE,121,1.0,4.0,92,0.00,,,0.00,Wunderground v.1.15,2013-02-09 10:23:00,
2013-02-09 05:28:00,12.2,10.3,30.35,ESE,121,0.0,4.0,92,0.00,,,0.00,Wunderground v.1.15,2013-02-09 10:28:00,
2013-02-09 05:33:00,12.2,10.3,30.35,ESE,121,0.0,0.0,92,0.00,,,0.00,Wunderground v.1.15,2013-02-09 10:33:00,
2013-02-09 05:39:00,12.0,9.9,30.35,ESE,121,0.0,0.0,91,0.00,,,0.00,Wunderground v.1.15,2013-02-09 10:39:00,
2013-02-09 05:44:00,12.0,9.9,30.35,ESE,121,0.0,0.0,91,0.00,,,0.00,Wunderground v.1.15,2013-02-09 10:44:00,
2013-02-09 05:49:00,12.1,10.0,30.35,ESE,121,0.0,2.0,91,0.00,,,0.00,Wunderground v.1.15,2013-02-09 10:49:00,
2013-02-09 05:54:00,12.1,10.0,30.35,ESE,121,0.0,0.0,91,0.00,,,0.00,Wunderground v.1.15,2013-02-09 10:54:00,
2013-02-09 05:59:00,12.0,9.9,30.35,ESE,121,0.0,0.0,91,0.00,,,0.00,Wunderground v.1.15,2013-02-09 10:59:00,
2013-02-09 06:04:00,12.0,9.9,30.35,ESE,121,0.0,0.0,91,0.00,,,0.00,Wunderground v.1.15,2013-02-09 11:04:00,
2013-02-09 06:09:00,11.7,9.6,30.36,ESE,121,0.0,0.0,91,0.00,,,0.00,Wunderground v.1.15,2013-02-09 11:09:00,
2013-02-09 06:14:00,11.6,9.5,30.36,ESE,121,0.0,0.0,91,0.00,,,0.00,Wunderground v.1.15,2013-02-09 11:14:00,
2013-02-09 06:19:00,11.7,9.6,30.36,ESE,121,1.0,1.0,91,0.00,,,0.00,Wunderground v.1.15,2013-02-09 11:19:00,
2013-02-09 06:24:00,11.8,9.7,30.36,ESE,121,0.0,0.0,91,0.00,,,0.00,Wunderground v.1.15,2013-02-09 11:24:00,
2013-02-09 06:29:00,11.5,9.4,30.36,ESE,121,0.0,0.0,91,0.00,,,0.00,Wunderground v.1.15,2013-02-09 11:29:00,
2013-02-09 06:34:00,10.8,8.4,30.36,ESE,121,0.0,0.0,90,0.00,,,0.00,Wunderground v.1.15,2013-02-09 11:34:00,
2013-02-09 06:39:00,10.1,7.5,30.38,ESE,121,0.0,0.0,89,0.00,,,0.00,Wunderground v.1.15,2013-02-09 11:39:00,
2013-02-09 06:44:00,9.8,7.2,30.38,ESE,121,0.0,0.0,89,0.00,,,0.00,Wunderground v.1.15,2013-02-09 11:44:00,
2013-02-09 06:49:00,9.8,7.2,30.38,ESE,121,0.0,0.0,89,0.00,,,0.00,Wunderground v.1.15,2013-02-09 11:49:00,
2013-02-09 06:54:00,9.9,7.6,30.39,ESE,121,0.0,0.0,90,0.00,,,0.00,Wunderground v.1.15,2013-02-09 11:54:00,
2013-02-09 06:59:00,9.9,7.6,30.39,ESE,121,0.0,0.0,90,0.00,,,0.00,Wunderground v.1.15,2013-02-09 11:59:00,
2013-02-09 07:04:00,9.9,7.6,30.39,ESE,121,0.0,0.0,90,0.00,,,0.00,Wunderground v.1.15,2013-02-09 12:04:00,
2013-02-09 07:09:00,9.8,7.5,30.38,ESE,121,0.0,0.0,90,0.00,,,0.00,Wunderground v.1.15,2013-02-09 12:09:00,
2013-02-09 07:14:00,9.7,7.4,30.38,ESE,121,0.0,0.0,90,0.00,,,0.00,Wunderground v.1.15,2013-02-09 12:14:00,
2013-02-09 07:19:00,9.4,7.1,30.38,ESE,121,0.0,0.0,90,0.00,,,0.00,Wunderground v.1.15,2013-02-09 12:19:00,
2013-02-09 07:24:00,9.1,6.8,30.39,ESE,121,0.0,0.0,90,0.00,,,0.00,Wunderground v.1.15,2013-02-09 12:24:00,
2013-02-09 07:29:00,8.9,6.6,30.39,ESE,121,0.0,0.0,90,0.00,,,0.00,Wunderground v.1.15,2013-02-09 12:29:00,
2013-02-09 07:34:00,8.6,6.3,30.39,ESE,121,0.0,0.0,90,0.00,,,0.00,Wunderground v.1.15,2013-02-09 12:34:00,
2013-02-09 07:39:00,8.3,5.7,30.40,ESE,121,0.0,0.0,89,0.00,,,0.00,Wunderground v.1.15,2013-02-09 12:39:00,
2013-02-09 07:44:00,8.1,5.5,30.40,ESE,121,0.0,0.0,89,0.00,,,0.00,Wunderground v.1.15,2013-02-09 12:44:00,
2013-02-09 07:49:00,7.8,5.2,30.40,ESE,121,0.0,0.0,89,0.00,,,0.00,Wunderground v.1.15,2013-02-09 12:49:00,
2013-02-09 07:54:00,7.6,5.0,30.40,ESE,121,0.0,0.0,89,0.00,,,0.00,Wunderground v.1.15,2013-02-09 12:54:00,
2013-02-09 07:59:00,7.3,4.7,30.40,ESE,121,0.0,0.0,89,0.00,,,0.00,Wunderground v.1.15,2013-02-09 12:59:00,
2013-02-09 08:04:00,7.2,4.6,30.40,ESE,121,0.0,0.0,89,0.00,,,0.00,Wunderground v.1.15,2013-02-09 13:04:00,
2013-02-09 08:09:00,7.8,5.5,30.40,ESE,121,0.0,0.0,90,0.00,,,0.00,Wunderground v.1.15,2013-02-09 13:09:00,
2013-02-09 08:14:00,8.2,5.9,30.40,ESE,121,0.0,0.0,90,0.00,,,0.00,Wunderground v.1.15,2013-02-09 13:14:00,
2013-02-09 08:19:00,8.3,6.0,30.40,ESE,121,0.0,0.0,90,0.00,,,0.00,Wunderground v.1.15,2013-02-09 13:19:00,
2013-02-09 08:24:00,8.4,6.1,30.41,ESE,121,0.0,0.0,90,0.00,,,0.00,Wunderground v.1.15,2013-02-09 13:24:00,
2013-02-09 08:29:00,8.4,6.1,30.41,ESE,121,0.0,0.0,90,0.00,,,0.00,Wunderground v.1.15,2013-02-09 13:29:00,
2013-02-09 08:34:00,8.8,6.7,30.41,ESE,121,0.0,0.0,91,0.00,,,0.00,Wunderground v.1.15,2013-02-09 13:34:00,
2013-02-09 08:39:00,9.1,7.0,30.41,ESE,121,0.0,0.0,91,0.00,,,0.00,Wunderground v.1.15,2013-02-09 13:39:00,
2013-02-09 08:44:00,9.4,7.3,30.41,ESE,121,0.0,0.0,91,0.00,,,0.00,Wunderground v.1.15,2013-02-09 13:44:00,
2013-02-09 08:49:00,9.6,7.7,30.41,ESE,121,0.0,0.0,92,0.00,,,0.00,Wunderground v.1.15,2013-02-09 13:49:00,
2013-02-09 08:54:00,10.3,8.4,30.41,ESE,121,0.0,0.0,92,0.00,,,0.00,Wunderground v.1.15,2013-02-09 13:54:00,
2013-02-09 08:59:00,10.9,9.0,30.41,ESE,121,0.0,0.0,92,0.00,,,0.00,Wunderground v.1.15,2013-02-09 13:59:00,
2013-02-09 09:04:00,11.1,9.5,30.41,ESE,121,0.0,0.0,93,0.00,,,0.00,Wunderground v.1.15,2013-02-09 14:04:00,
2013-02-09 09:09:00,11.2,9.3,30.40,ESE,121,0.0,0.0,92,0.00,,,0.00,Wunderground v.1.15,2013-02-09 14:09:00,
2013-02-09 09:14:00,11.3,9.4,30.40,ESE,121,0.0,0.0,92,0.00,,,0.00,Wunderground v.1.15,2013-02-09 14:14:00,
2013-02-09 09:19:00,11.5,9.6,30.40,ESE,121,0.0,0.0,92,0.00,,,0.00,Wunderground v.1.15,2013-02-09 14:19:00,
2013-02-09 09:24:00,12.0,10.1,30.40,ESE,121,0.0,0.0,92,0.00,,,0.00,Wunderground v.1.15,2013-02-09 14:24:00,
2013-02-09 09:29:00,12.4,10.5,30.40,ESE,121,0.0,0.0,92,0.00,,,0.00,Wunderground v.1.15,2013-02-09 14:29:00,
2013-02-09 09:34:00,12.9,11.3,30.40,ESE,121,0.0,0.0,93,0.00,,,0.00,Wunderground v.1.15,2013-02-09 14:34:00,
2013-02-09 09:39:00,13.3,11.7,30.41,ESE,121,0.0,0.0,93,0.00,,,0.00,Wunderground v.1.15,2013-02-09 14:39:00,
2013-02-09 09:45:00,13.7,12.1,30.41,ESE,121,0.0,0.0,93,0.00,,,0.00,Wunderground v.1.15,2013-02-09 14:45:00,
2013-02-09 09:50:00,14.2,12.5,30.41,ESE,121,0.0,0.0,93,0.00,,,0.00,Wunderground v.1.15,2013-02-09 14:50:00,
2013-02-09 09:55:00,14.8,13.1,30.41,ESE,121,0.0,0.0,93,0.00,,,0.00,Wunderground v.1.15,2013-02-09 14:55:00,
2013-02-09 10:00:00,15.6,13.9,30.41,ESE,121,1.0,2.0,93,0.00,,,0.00,Wunderground v.1.15,2013-02-09 15:00:00,
2013-02-09 10:05:00,16.7,15.3,30.41,ESE,121,0.0,1.0,94,0.00,,,0.00,Wunderground v.1.15,2013-02-09 15:05:00,
2013-02-09 10:10:00,17.2,15.8,30.40,ESE,121,0.0,1.0,94,0.00,,,0.00,Wunderground v.1.15,2013-02-09 15:10:00,
2013-02-09 10:15:00,17.7,16.3,30.40,ESE,121,0.0,1.0,94,0.00,,,0.00,Wunderground v.1.15,2013-02-09 15:15:00,
2013-02-09 10:20:00,18.4,17.0,30.40,ESE,121,1.0,1.0,94,0.00,,,0.00,Wunderground v.1.15,2013-02-09 15:20:00,
2013-02-09 10:25:00,19.1,17.7,30.40,SE,134,0.0,4.0,94,0.00,,,0.00,Wunderground v.1.15,2013-02-09 15:25:00,
2013-02-09 10:30:00,19.6,17.9,30.40,SE,134,0.0,4.0,93,0.00,,,0.00,Wunderground v.1.15,2013-02-09 15:30:00,
2013-02-09 10:35:00,20.1,18.4,30.40,ESE,117,0.0,1.0,93,0.00,,,0.00,Wunderground v.1.15,2013-02-09 15:35:00,
2013-02-09 10:40:00,20.4,18.4,30.39,SE,136,0.0,2.0,92,0.00,,,0.00,Wunderground v.1.15,2013-02-09 15:40:00,
2013-02-09 10:45:00,20.7,18.5,30.39,SE,136,0.0,0.0,91,0.00,,,0.00,Wunderground v.1.15,2013-02-09 15:45:00,
2013-02-09 10:50:00,21.0,18.8,30.39,SSE,158,0.0,1.0,91,0.00,,,0.00,Wunderground v.1.15,2013-02-09 15:50:00,
2013-02-09 10:55:00,21.2,18.7,30.40,SSE,158,0.0,1.0,90,0.00,,,0.00,Wunderground v.1.15,2013-02-09 15:55:00,
2013-02-09 11:00:00,21.5,18.8,30.40,SSE,158,1.0,1.0,89,0.00,,,0.00,Wunderground v.1.15,2013-02-09 16:00:00,
2013-02-09 11:05:00,21.9,18.9,30.40,SSE,155,1.0,1.0,88,0.00,,,0.00,Wunderground v.1.15,2013-02-09 16:05:00,
2013-02-09 11:10:00,22.2,18.9,30.39,ENE,68,0.0,3.0,87,0.00,,,0.00,Wunderground v.1.15,2013-02-09 16:10:00,
2013-02-09 11:15:00,22.4,18.8,30.39,ENE,68,0.0,1.0,86,0.00,,,0.00,Wunderground v.1.15,2013-02-09 16:15:00,
2013-02-09 11:20:00,22.6,18.8,30.39,ENE,67,1.0,1.0,85,0.00,,,0.00,Wunderground v.1.15,2013-02-09 16:20:00,
2013-02-09 11:25:00,22.9,19.1,30.39,ENE,69,0.0,2.0,85,0.00,,,0.00,Wunderground v.1.15,2013-02-09 16:25:00,
2013-02-09 11:30:00,23.1,19.0,30.39,ENE,69,0.0,2.0,84,0.00,,,0.00,Wunderground v.1.15,2013-02-09 16:30:00,
2013-02-09 11:35:00,23.4,19.0,30.39,ENE,69,0.0,1.0,83,0.00,,,0.00,Wunderground v.1.15,2013-02-09 16:35:00,
2013-02-09 11:40:00,23.9,19.5,30.39,ENE,67,0.0,1.0,83,0.00,,,0.00,Wunderground v.1.15,2013-02-09 16:40:00,
2013-02-09 11:45:00,24.3,19.3,30.39,ENE,68,0.0,1.0,81,0.00,,,0.00,Wunderground v.1.15,2013-02-09 16:45:00,
2013-02-09 11:50:00,24.6,19.3,30.39,WSW,257,0.0,5.0,80,0.00,,,0.00,Wunderground v.1.15,2013-02-09 16:50:00,
2013-02-09 11:55:00,24.9,19.3,30.38,West,261,0.0,3.0,79,0.00,,,0.00,Wunderground v.1.15,2013-02-09 16:55:00,
2013-02-09 12:00:00,25.3,19.4,30.38,West,261,0.0,3.0,78,0.00,,,0.00,Wunderground v.1.15,2013-02-09 17:00:00,
2013-02-09 12:05:00,25.8,19.9,30.38,West,261,0.0,1.0,78,0.00,,,0.00,Wunderground v.1.15,2013-02-09 17:05:00,
2013-02-09 12:10:00,26.1,19.6,30.38,West,267,0.0,4.0,76,0.00,,,0.00,Wunderground v.1.15,2013-02-09 17:10:00,
2013-02-09 12:16:00,26.3,19.5,30.38,West,268,0.0,2.0,75,0.00,,,0.00,Wunderground v.1.15,2013-02-09 17:16:00,
2013-02-09 12:21:00,26.6,19.1,30.38,WSW,253,2.0,4.0,73,0.00,,,0.00,Wunderground v.1.15,2013-02-09 17:21:00,
2013-02-09 12:26:00,26.8,19.0,30.38,SSW,212,0.0,3.0,72,0.00,,,0.00,Wunderground v.1.15,2013-02-09 17:26:00,
2013-02-09 12:31:00,26.8,18.7,30.38,West,261,1.0,5.0,71,0.00,,,0.00,Wunderground v.1.15,2013-02-09 17:31:00,
2013-02-09 12:36:00,27.2,19.0,30.38,West,267,0.0,2.0,71,0.00,,,0.00,Wunderground v.1.15,2013-02-09 17:36:00,
2013-02-09 12:41:00,27.4,19.2,30.37,West,270,0.0,4.0,71,0.00,,,0.00,Wunderground v.1.15,2013-02-09 17:41:00,
2013-02-09 12:46:00,27.7,19.5,30.37,West,266,0.0,3.0,71,0.00,,,0.00,Wunderground v.1.15,2013-02-09 17:46:00,
2013-02-09 12:51:00,27.9,19.7,30.37,NNW,331,0.0,0.0,71,0.00,,,0.00,Wunderground v.1.15,2013-02-09 17:51:00,
2013-02-09 12:56:00,28.1,19.6,30.36,NNW,331,0.0,1.0,70,0.00,,,0.00,Wunderground v.1.15,2013-02-09 17:56:00,
2013-02-09 13:01:00,28.3,19.4,30.36,NNW,333,1.0,1.0,69,0.00,,,0.00,Wunderground v.1.15,2013-02-09 18:01:00,
2013-02-09 13:06:00,28.5,19.3,30.36,SW,226,3.0,4.0,68,0.00,,,0.00,Wunderground v.1.15,2013-02-09 18:06:00,
2013-02-09 13:11:00,28.6,19.4,30.35,ENE,60,0.0,0.0,68,0.00,,,0.00,Wunderground v.1.15,2013-02-09 18:11:00,
2013-02-09 13:16:00,28.9,19.3,30.35,ENE,60,0.0,1.0,67,0.00,,,0.00,Wunderground v.1.15,2013-02-09 18:16:00,
2013-02-09 13:21:00,29.4,19.4,30.35,WNW,288,0.0,0.0,66,0.00,,,0.00,Wunderground v.1.15,2013-02-09 18:21:00,
2013-02-09 13:26:00,29.7,19.4,30.35,NNW,333,0.0,4.0,65,0.00,,,0.00,Wunderground v.1.15,2013-02-09 18:26:00,
2013-02-09 13:31:00,29.6,18.9,30.35,North,360,0.0,2.0,64,0.00,,,0.00,Wunderground v.1.15,2013-02-09 18:31:00,
2013-02-09 13:36:00,29.6,18.9,30.35,NNW,341,2.0,3.0,64,0.00,,,0.01,Wunderground v.1.15,2013-02-09 18:36:00,
2013-02-09 13:41:00,29.6,18.9,30.35,West,263,0.0,2.0,64,0.00,,,0.01,Wunderground v.1.15,2013-02-09 18:41:00,
2013-02-09 13:46:00,29.9,19.2,30.35,West,276,2.0,2.0,64,0.00,,,0.01,Wunderground v.1.15,2013-02-09 18:46:00,
2013-02-09 13:51:00,29.8,19.1,30.35,West,263,0.0,1.0,64,0.05,,,0.02,Wunderground v.1.15,2013-02-09 18:51:00,
2013-02-09 13:56:00,29.8,18.7,30.34,WNW,298,1.0,4.0,63,0.05,,,0.02,Wunderground v.1.15,2013-02-09 18:56:00,
2013-02-09 14:01:00,29.8,18.7,30.34,WNW,303,1.0,1.0,63,0.04,,,0.02,Wunderground v.1.15,2013-02-09 19:01:00,
2013-02-09 14:06:00,29.8,18.7,30.34,NW,318,1.0,3.0,63,0.04,,,0.03,Wunderground v.1.15,2013-02-09 19:06:00,
2013-02-09 14:11:00,29.8,18.7,30.33,NE,38,0.0,1.0,63,0.04,,,0.03,Wunderground v.1.15,2013-02-09 19:11:00,
2013-02-09 14:16:00,30.0,18.9,30.33,SE,134,2.0,2.0,63,0.06,,,0.04,Wunderground v.1.15,2013-02-09 19:16:00,
2013-02-09 14:21:00,30.1,19.0,30.33,East,81,1.0,1.0,63,0.06,,,0.04,Wunderground v.1.15,2013-02-09 19:21:00,
2013-02-09 14:26:00,30.4,19.3,30.33,NE,41,0.0,8.0,63,0.04,,,0.04,Wunderground v.1.15,2013-02-09 19:26:00,
2013-02-09 14:31:00,30.5,19.0,30.33,NE,38,0.0,1.0,62,0.00,,,0.05,Wunderground v.1.15,2013-02-09 19:31:00,
2013-02-09 14:36:00,30.6,18.7,30.33,NNE,22,0.0,2.0,61,0.00,,,0.05,Wunderground v.1.15,2013-02-09 19:36:00,
2013-02-09 14:41:00,30.7,18.4,30.32,SW,233,0.0,1.0,60,0.00,,,0.05,Wunderground v.1.15,2013-02-09 19:41:00,
2013-02-09 14:46:00,30.5,18.3,30.32,NE,56,1.0,4.0,60,0.04,,,0.05,Wunderground v.1.15,2013-02-09 19:46:00,
2013-02-09 14:51:00,30.3,18.1,30.32,NNE,32,0.0,0.0,60,0.04,,,0.06,Wunderground v.1.15,2013-02-09 19:51:00,
2013-02-09 14:56:00,30.3,18.1,30.32,East,96,0.0,2.0,60,0.04,,,0.06,Wunderground v.1.15,2013-02-09 19:56:00,
2013-02-09 15:01:00,30.5,18.6,30.32,NNW,344,1.0,1.0,61,0.04,,,0.06,Wunderground v.1.15,2013-02-09 20:01:00,
2013-02-09 15:06:00,30.1,17.9,30.32,NNE,32,1.0,5.0,60,0.00,,,0.06,Wunderground v.1.15,2013-02-09 20:06:00,
2013-02-09 15:11:00,30.1,18.3,30.31,NNE,20,0.0,1.0,61,0.00,,,0.06,Wunderground v.1.15,2013-02-09 20:11:00,
2013-02-09 15:16:00,30.4,18.2,30.31,East,87,1.0,4.0,60,0.00,,,0.07,Wunderground v.1.15,2013-02-09 20:16:00,
2013-02-09 15:21:00,30.4,18.2,30.31,ENE,57,0.0,2.0,60,0.00,,,0.07,Wunderground v.1.15,2013-02-09 20:21:00,
2013-02-09 15:26:00,30.4,18.2,30.30,SSE,152,1.0,2.0,60,0.00,,,0.07,Wunderground v.1.15,2013-02-09 20:26:00,
2013-02-09 15:31:00,30.5,18.3,30.30,NE,44,0.0,2.0,60,0.00,,,0.07,Wunderground v.1.15,2013-02-09 20:31:00,
2013-02-09 15:36:00,30.5,18.6,30.30,NNW,348,0.0,2.0,61,0.00,,,0.07,Wunderground v.1.15,2013-02-09 20:36:00,
2013-02-09 15:41:00,30.6,18.3,30.30,ENE,70,0.0,3.0,60,0.00,,,0.08,Wunderground v.1.15,2013-02-09 20:41:00,
2013-02-09 15:46:00,30.5,18.3,30.30,ENE,62,2.0,5.0,60,0.00,,,0.08,Wunderground v.1.15,2013-02-09 20:46:00,
2013-02-09 15:51:00,30.3,18.1,30.30,SSE,165,0.0,1.0,60,0.00,,,0.08,Wunderground v.1.15,2013-02-09 20:51:00,
2013-02-09 15:56:00,30.3,18.5,30.30,SSE,155,1.0,1.0,61,0.00,,,0.08,Wunderground v.1.15,2013-02-09 20:56:00,
2013-02-09 16:01:00,30.1,18.3,30.30,NE,48,0.0,2.0,61,0.00,,,0.08,Wunderground v.1.15,2013-02-09 21:01:00,
2013-02-09 16:06:00,29.8,18.4,30.30,NE,44,0.0,6.0,62,0.00,,,0.08,Wunderground v.1.15,2013-02-09 21:06:00,
2013-02-09 16:11:00,29.6,18.2,30.30,NE,44,0.0,1.0,62,0.00,,,0.08,Wunderground v.1.15,2013-02-09 21:11:00,
2013-02-09 16:16:00,29.8,18.7,30.30,SE,130,0.0,5.0,63,0.00,,,0.08,Wunderground v.1.15,2013-02-09 21:16:00,
2013-02-09 16:21:00,29.6,18.5,30.30,NE,35,0.0,2.0,63,0.00,,,0.09,Wunderground v.1.15,2013-02-09 21:21:00,
2013-02-09 16:27:00,29.7,19.0,30.30,NNW,347,0.0,5.0,64,0.00,,,0.09,Wunderground v.1.15,2013-02-09 21:27:00,
2013-02-09 16:32:00,29.7,19.0,30.30,NE,46,0.0,2.0,64,0.00,,,0.09,Wunderground v.1.15,2013-02-09 21:32:00,
2013-02-09 16:37:00,29.6,18.9,30.30,East,80,2.0,5.0,64,0.00,,,0.09,Wunderground v.1.15,2013-02-09 21:37:00,
2013-02-09 16:42:00,29.3,18.3,30.29,East,84,0.0,1.0,63,0.00,,,0.09,Wunderground v.1.15,2013-02-09 21:42:00,
2013-02-09 16:47:00,29.2,18.5,30.29,NE,34,2.0,2.0,64,0.00,,,0.09,Wunderground v.1.15,2013-02-09 21:47:00,
2013-02-09 16:52:00,29.1,18.4,30.29,East,99,0.0,0.0,64,0.00,,,0.09,Wunderground v.1.15,2013-02-09 21:52:00,
2013-02-09 16:57:00,29.1,18.8,30.30,East,83,0.0,5.0,65,0.00,,,0.09,Wunderground v.1.15,2013-02-09 21:57:00,
2013-02-09 17:02:00,28.9,19.0,30.30,North,355,0.0,0.0,66,0.00,,,0.09,Wunderground v.1.15,2013-02-09 22:02:00,
2013-02-09 17:07:00,28.8,19.2,30.30,North,360,0.0,2.0,67,0.00,,,0.09,Wunderground v.1.15,2013-02-09 22:07:00,
2013-02-09 17:12:00,28.8,19.6,30.30,ESE,103,1.0,2.0,68,0.00,,,0.09,Wunderground v.1.15,2013-02-09 22:12:00,
2013-02-09 17:17:00,28.5,19.6,30.30,ESE,111,0.0,2.0,69,0.00,,,0.09,Wunderground v.1.15,2013-02-09 22:17:00,
2013-02-09 17:22:00,28.2,19.7,30.30,ESE,107,1.0,2.0,70,0.00,,,0.09,Wunderground v.1.15,2013-02-09 22:22:00,
2013-02-09 17:27:00,27.7,19.5,30.29,East,81,0.0,5.0,71,0.00,,,0.09,Wunderground v.1.15,2013-02-09 22:27:00,
2013-02-09 17:32:00,27.4,19.6,30.29,NNW,337,0.0,0.0,72,0.00,,,0.09,Wunderground v.1.15,2013-02-09 22:32:00,
2013-02-09 17:37:00,27.0,19.5,30.29,ESE,111,1.0,5.0,73,0.00,,,0.09,Wunderground v.1.15,2013-02-09 22:37:00,
2013-02-09 17:42:00,26.8,19.6,30.30,ESE,111,0.0,1.0,74,0.00,,,0.09,Wunderground v.1.15,2013-02-09 22:42:00,
2013-02-09 17:47:00,26.5,19.6,30.30,ESE,110,0.0,1.0,75,0.00,,,0.09,Wunderground v.1.15,2013-02-09 22:47:00,
2013-02-09 17:52:00,26.2,19.4,30.30,ESE,110,0.0,1.0,75,0.00,,,0.09,Wunderground v.1.15,2013-02-09 22:52:00,
2013-02-09 17:57:00,26.0,19.5,30.30,ESE,111,0.0,1.0,76,0.00,,,0.09,Wunderground v.1.15,2013-02-09 22:57:00,
2013-02-09 18:02:00,25.7,19.2,30.30,ESE,111,0.0,0.0,76,0.00,,,0.09,Wunderground v.1.15,2013-02-09 23:02:00,
2013-02-09 18:07:00,25.5,19.3,30.30,ESE,110,0.0,1.0,77,0.00,,,0.09,Wunderground v.1.15,2013-02-09 23:07:00,
2013-02-09 18:12:00,25.3,19.4,30.30,ESE,110,0.0,0.0,78,0.00,,,0.09,Wunderground v.1.15,2013-02-09 23:12:00,
2013-02-09 18:17:00,25.1,19.2,30.30,ESE,111,0.0,0.0,78,0.00,,,0.09,Wunderground v.1.15,2013-02-09 23:17:00,
2013-02-09 18:22:00,24.9,19.0,30.30,ESE,111,0.0,0.0,78,0.00,,,0.09,Wunderground v.1.15,2013-02-09 23:22:00,
2013-02-09 18:27:00,24.8,19.2,30.31,ESE,111,0.0,0.0,79,0.00,,,0.09,Wunderground v.1.15,2013-02-09 23:27:00,
2013-02-09 18:32:00,24.6,19.0,30.31,ESE,111,0.0,0.0,79,0.00,,,0.09,Wunderground v.1.15,2013-02-09 23:32:00,
2013-02-09 18:37:00,24.3,19.0,30.31,ESE,111,0.0,1.0,80,0.00,,,0.09,Wunderground v.1.15,2013-02-09 23:37:00,
2013-02-09 18:42:00,24.1,19.1,30.30,ESE,110,1.0,2.0,81,0.00,,,0.09,Wunderground v.1.15,2013-02-09 23:42:00,
2013-02-09 18:47:00,24.0,19.3,30.30,ESE,110,0.0,2.0,82,0.00,,,0.09,Wunderground v.1.15,2013-02-09 23:47:00,
2013-02-09 18:52:00,23.9,19.2,30.30,ESE,110,0.0,2.0,82,0.00,,,0.09,Wunderground v.1.15,2013-02-09 23:52:00,
2013-02-09 18:57:00,23.9,19.2,30.28,ESE,111,2.0,2.0,82,0.00,,,0.09,Wunderground v.1.15,2013-02-09 23:57:00,
2013-02-09 19:02:00,23.7,19.0,30.28,ESE,111,0.0,2.0,82,0.00,,,0.09,Wunderground v.1.15,2013-02-10 00:02:00,
2013-02-09 19:07:00,23.6,19.2,30.28,ESE,110,1.0,2.0,83,0.00,,,0.09,Wunderground v.1.15,2013-02-10 00:07:00,
2013-02-09 19:12:00,23.6,19.5,30.28,SSW,205,0.0,0.0,84,0.00,,,0.09,Wunderground v.1.15,2013-02-10 00:12:00,
2013-02-09 19:17:00,23.6,19.5,30.28,East,92,0.0,3.0,84,0.00,,,0.09,Wunderground v.1.15,2013-02-10 00:17:00,
2013-02-09 19:22:00,23.5,19.7,30.28,East,94,0.0,2.0,85,0.00,,,0.09,Wunderground v.1.15,2013-02-10 00:22:00,
2013-02-09 19:27:00,23.4,19.6,30.28,East,94,0.0,2.0,85,0.00,,,0.09,Wunderground v.1.15,2013-02-10 00:27:00,
2013-02-09 19:32:00,23.3,19.5,30.28,East,94,0.0,2.0,85,0.00,,,0.09,Wunderground v.1.15,2013-02-10 00:32:00,
2013-02-09 19:37:00,23.3,19.5,30.28,East,94,0.0,2.0,85,0.00,,,0.09,Wunderground v.1.15,2013-02-10 00:37:00,
2013-02-09 19:42:00,23.1,19.5,30.29,East,94,0.0,1.0,86,0.00,,,0.09,Wunderground v.1.15,2013-02-10 00:42:00,
2013-02-09 19:48:00,23.1,19.5,30.29,East,94,0.0,2.0,86,0.00,,,0.09,Wunderground v.1.15,2013-02-10 00:48:00,
2013-02-09 19:53:00,22.9,19.3,30.29,East,94,0.0,0.0,86,0.00,,,0.09,Wunderground v.1.15,2013-02-10 00:53:00,
2013-02-09 19:58:00,22.9,19.3,30.28,East,92,0.0,4.0,86,0.00,,,0.09,Wunderground v.1.15,2013-02-10 00:58:00,
2013-02-09 20:03:00,22.8,19.5,30.28,East,92,1.0,1.0,87,0.00,,,0.09,Wunderground v.1.15,2013-02-10 01:03:00,
2013-02-09 20:08:00,22.7,19.4,30.28,East,92,0.0,2.0,87,0.00,,,0.09,Wunderground v.1.15,2013-02-10 01:08:00,
2013-02-09 20:13:00,22.6,19.3,30.28,East,92,2.0,2.0,87,0.00,,,0.09,Wunderground v.1.15,2013-02-10 01:13:00,
2013-02-09 20:18:00,22.6,19.3,30.28,East,92,1.0,4.0,87,0.00,,,0.09,Wunderground v.1.15,2013-02-10 01:18:00,
2013-02-09 20:23:00,22.6,19.3,30.28,East,92,0.0,2.0,87,0.00,,,0.09,Wunderground v.1.15,2013-02-10 01:23:00,
2013-02-09 20:28:00,22.6,19.6,30.27,ENE,67,0.0,4.0,88,0.00,,,0.09,Wunderground v.1.15,2013-02-10 01:28:00,
2013-02-09 20:33:00,22.5,19.5,30.27,ENE,57,0.0,1.0,88,0.00,,,0.09,Wunderground v.1.15,2013-02-10 01:33:00,
2013-02-09 20:38:00,22.4,19.4,30.27,NE,49,0.0,4.0,88,0.00,,,0.09,Wunderground v.1.15,2013-02-10 01:38:00,
2013-02-09 20:43:00,22.2,19.2,30.28,NE,51,0.0,1.0,88,0.00,,,0.09,Wunderground v.1.15,2013-02-10 01:43:00,
2013-02-09 20:48:00,22.1,19.1,30.28,NE,53,0.0,3.0,88,0.00,,,0.09,Wunderground v.1.15,2013-02-10 01:48:00,
2013-02-09 20:53:00,22.0,19.0,30.28,NE,35,0.0,2.0,88,0.00,,,0.09,Wunderground v.1.15,2013-02-10 01:53:00,
2013-02-09 20:58:00,21.9,18.9,30.27,NE,38,0.0,4.0,88,0.00,,,0.09,Wunderground v.1.15,2013-02-10 01:58:00,
2013-02-09 21:04:00,21.8,19.1,30.27,NE,39,0.0,2.0,89,0.00,,,0.09,Wunderground v.1.15,2013-02-10 02:04:00,
2013-02-09 21:08:00,21.7,19.0,30.27,ENE,70,0.0,3.0,89,0.00,,,0.09,Wunderground v.1.15,2013-02-10 02:08:00,
2013-02-09 21:14:00,21.6,18.9,30.27,ENE,69,0.0,3.0,89,0.00,,,0.09,Wunderground v.1.15,2013-02-10 02:14:00,
2013-02-09 21:18:00,21.5,19.0,30.27,ENE,69,1.0,3.0,90,0.00,,,0.09,Wunderground v.1.15,2013-02-10 02:18:00,
2013-02-09 21:24:00,21.5,19.0,30.27,ESE,119,0.0,3.0,90,0.00,,,0.09,Wunderground v.1.15,2013-02-10 02:24:00,
2013-02-09 21:29:00,21.4,18.9,30.25,East,96,0.0,3.0,90,0.00,,,0.09,Wunderground v.1.15,2013-02-10 02:29:00,
2013-02-09 21:34:00,21.3,18.8,30.25,ENE,58,1.0,4.0,90,0.00,,,0.09,Wunderground v.1.15,2013-02-10 02:34:00,
2013-02-09 21:39:00,21.3,19.1,30.25,ENE,59,0.0,4.0,91,0.00,,,0.09,Wunderground v.1.15,2013-02-10 02:39:00,
2013-02-09 21:43:00,21.2,19.0,30.25,ENE,59,0.0,2.0,91,0.00,,,0.09,Wunderground v.1.15,2013-02-10 02:43:00,
2013-02-09 21:48:00,21.2,19.0,30.25,ENE,59,0.0,4.0,91,0.00,,,0.09,Wunderground v.1.15,2013-02-10 02:48:00,
2013-02-09 21:53:00,21.2,19.0,30.25,ENE,59,0.0,3.0,91,0.00,,,0.09,Wunderground v.1.15,2013-02-10 02:53:00,
2013-02-09 21:59:00,21.1,18.9,30.25,ENE,61,0.0,3.0,91,0.00,,,0.09,Wunderground v.1.15,2013-02-10 02:59:00,
2013-02-09 22:04:00,21.1,18.9,30.25,ENE,62,0.0,3.0,91,0.00,,,0.09,Wunderground v.1.15,2013-02-10 03:04:00,
2013-02-09 22:08:00,21.1,18.9,30.25,ENE,64,2.0,3.0,91,0.00,,,0.09,Wunderground v.1.15,2013-02-10 03:08:00,
2013-02-09 22:13:00,21.1,19.1,30.25,East,82,0.0,2.0,92,0.00,,,0.09,Wunderground v.1.15,2013-02-10 03:13:00,
2013-02-09 22:19:00,21.0,19.0,30.25,East,82,0.0,2.0,92,0.00,,,0.09,Wunderground v.1.15,2013-02-10 03:19:00,
2013-02-09 22:23:00,21.0,19.0,30.25,East,82,0.0,1.0,92,0.00,,,0.09,Wunderground v.1.15,2013-02-10 03:23:00,
2013-02-09 22:28:00,21.1,19.1,30.24,East,98,1.0,3.0,92,0.00,,,0.09,Wunderground v.1.15,2013-02-10 03:28:00,
2013-02-09 22:34:00,21.1,19.1,30.24,East,98,1.0,2.0,92,0.00,,,0.09,Wunderground v.1.15,2013-02-10 03:34:00,
2013-02-09 22:39:00,21.1,19.1,30.24,East,96,0.0,4.0,92,0.00,,,0.09,Wunderground v.1.15,2013-02-10 03:39:00,
2013-02-09 22:44:00,21.1,19.1,30.23,East,94,0.0,1.0,92,0.00,,,0.09,Wunderground v.1.15,2013-02-10 03:44:00,
2013-02-09 22:49:00,21.0,19.0,30.23,East,94,0.0,4.0,92,0.00,,,0.09,Wunderground v.1.15,2013-02-10 03:49:00,
2013-02-09 22:54:00,21.1,19.1,30.23,East,94,0.0,2.0,92,0.00,,,0.09,Wunderground v.1.15,2013-02-10 03:54:00,
2013-02-09 22:59:00,21.0,19.0,30.23,East,94,0.0,2.0,92,0.00,,,0.09,Wunderground v.1.15,2013-02-10 03:59:00,
2013-02-09 23:04:00,20.9,18.9,30.23,East,94,0.0,4.0,92,0.00,,,0.09,Wunderground v.1.15,2013-02-10 04:04:00,
2013-02-09 23:09:00,20.8,18.8,30.23,East,94,1.0,4.0,92,0.00,,,0.09,Wunderground v.1.15,2013-02-10 04:09:00,
2013-02-09 23:14:00,20.7,18.7,30.23,East,94,0.0,2.0,92,0.00,,,0.09,Wunderground v.1.15,2013-02-10 04:14:00,
2013-02-09 23:19:00,20.6,18.6,30.23,NNE,19,0.0,4.0,92,0.00,,,0.09,Wunderground v.1.15,2013-02-10 04:19:00,
2013-02-09 23:24:00,20.6,18.6,30.23,NNE,26,0.0,2.0,92,0.00,,,0.09,Wunderground v.1.15,2013-02-10 04:24:00,
2013-02-09 23:29:00,20.6,18.6,30.23,East,81,0.0,4.0,92,0.00,,,0.09,Wunderground v.1.15,2013-02-10 04:29:00,
2013-02-09 23:34:00,20.7,18.7,30.23,ENE,69,0.0,3.0,92,0.00,,,0.09,Wunderground v.1.15,2013-02-10 04:34:00,
2013-02-09 23:39:00,20.7,18.7,30.23,NE,39,0.0,4.0,92,0.00,,,0.09,Wunderground v.1.15,2013-02-10 04:39:00,
2013-02-09 23:44:00,20.8,19.1,30.23,East,86,0.0,2.0,93,0.00,,,0.09,Wunderground v.1.15,2013-02-10 04:44:00,
2013-02-09 23:49:00,20.8,18.8,30.23,ENE,61,0.0,4.0,92,0.00,,,0.09,Wunderground v.1.15,2013-02-10 04:49:00,
2013-02-09 23:54:00,20.8,19.1,30.22,ENE,66,0.0,4.0,93,0.00,,,0.09,Wunderground v.1.15,2013-02-10 04:54:00,
2013-02-09 23:59:00,20.7,19.0,30.22,ENE,65,0.0,4.0,93,0.00,,,0.09,Wunderground v.1.15,2013-02-10 04:59:00,